STARLINK-32492, 62050

Orbit data source: Space-Track

STARLINK-32492, 62050 is a payload satellite owned by SpaceX/Seattle (US) in LEO that was launched on Thu, 21 Nov 2024 UTC via an FALCON 9 launch vehicle from the Air Force Eastern Test Range (AFETR). Payload-class satellites include a variety of spacecraft equipped with specific instruments for various scientific and technological missions. These include communications satellites like Starlink; space stations such as the ISS; scientific satellites like the Hubble; Earth observation satellites from companies like Planet Labs, Umbra, and HawkEye 360; GPS; miniature CubeSats for education and research; and military/defense satellites.

Loading next visibility...
Identifier
62050, 2024-216U
Orbit
LEO
Country
Flag of USUS
Related business
Manufacturer
SpaceX/Seattle
Mission
Operational Commercial Communications
Bus & Motor
STARLINK V2M, Unknown motor
Mass
730 kg wet, ~700 kg dry
Launch date (UTC)
2024-11-21 (1 year ago)
Launch vehicle
FALCON 9
Launch site
Air Force Eastern Test Range (AFETR)
Object type
Payload
Rocket body
Debris
Shape & HBR
Box + 2 Pan, 17.7 m
Radar Cross Section
33.884 m², Large (>1 m²)

Expand to show TLE details & history
Last TLE update: 14 hours ago

TLE from 14 hours ago
0 STARLINK-32492
1 62050U 24216U   26036.50915971  .00045395  00000-0  16473-2 0  9991
2 62050  43.0032  85.0148 0001712 264.9687  95.0969 15.27613128 68879
Epoch: 2026-02-05T12:13Z
TLE epoch observation values (Epoch: 2026-02-05T12:13:11.398Z)
Latitude
-0.00006°
Longitude
126.05688°
Altitude
482.83 km
Speed
7.626 km/s
True Right ascension
05h 40m 03s
True Declination
0° 00' 00"
Sunlit
Object was in full shadow at epoch
Visualization orbit readout
Latitude
Unknown
Longitude
Unknown
Altitude
Unknown
Speed
Unknown
Apparent Right ascension
Unknown
Apparent Declination
Unknown
Sunlit
N/A
Visualization observer readout
Local Sidereal Time
04:20:26
Azimuth
Unknown
Elevation
Unknown
Doppler factor
Unknown
Orbital elements
Apogee altitude
486.07 km
Perigee altitude
483.72 km
Semi-major axis
6,863.032 km
Eccentricity
0.00017
Inclination
43.0032°
RAAN
85.0148°
Arg. of periapsis
264.9687°
True anomaly
95.11644°
Mean anomaly
95.0969°
Eccentric anomaly
95.10667°
Mean motion
3.81741 °/min
Orbital period
94.3 mins
BSTAR
0.0016473
Loading maneuver chart data...
Computing Atmospheric mass density...
Loading historical data...
Loading historical data...
Loading historical data...
Loading historical data...
Loading historical data...
Loading historical data...
Loading historical data...

Documentation

Showing up to 5 results
|